Delaware, OH

6:53 PM EDT on April 30, 2017 (GMT -0400)
Delaware Municipal

Weather History for KDLZ - October, 2012

Change the Weather History Date:

Wednesday, October 31, 2012

  Actual Average Record
Temperature  
Mean Temperature 37 °F -  
Max Temperature 39 °F 59 °F 81 °F (1950)
Min Temperature 35 °F 35 °F 16 °F (1988)
Degree Days  
Heating Degree Days 28    
Moisture  
Dew Point 35 °F    
Average Humidity 92    
Maximum Humidity 100    
Minimum Humidity 87    
Precipitation  
Precipitation 0.00 in - - ()
Sea Level Pressure  
Sea Level Pressure 29.63 in    
Wind  
Wind Speed 13 mph (WNW)    
Max Wind Speed 16 mph    
Max Gust Speed 25 mph    
Visibility 6 miles    
Events Rain , Snow    
Averages and records for this station are not official NWS values.
T = Trace of Precipitation, MM = Missing Value Source: NWS Daily Summary

Daily Weather History Graph

Daily Weather History Graph

Search for Another Location

Airport or City:

Trip Planner

Search our weather history database for the weather conditions in past years. The results will help you decide how hot, cold, wet, or windy it might be!

Date:

Astronomy

Oct. 31, 2012 Rise Set
Actual Time 8:01 AM EDT 6:30 PM EDT
Civil Twilight 7:33 AM EDT 6:58 PM EDT
Nautical Twilight 7:01 AM EDT 7:30 PM EDT
Astronomical Twilight 6:29 AM EDT 8:01 PM EDT
Moon 7:40 PM EDT (10/31) 9:41 AM EDT (10/31)
Length of Visible Light 11h 25m
Length of Day
10h 28m
Full, 97% of the Moon is Illuminated
Oct 31
Full
Nov 6
Last Quarter
Nov 13
New
Nov 20
First Quarter
Nov 28
Full

Hourly Weather History & Observations

Time (EDT) Temp. Windchill Dew Point Humidity Pressure Visibility Wind Dir Wind Speed Gust Speed Precip Events Conditions
12:17 AM 35.6 °F 26.2 °F 33.8 °F 93% 29.54 in 10.0 mi WNW 15.0 mph 21.9 mph N/A   Light Drizzle
12:37 AM 35.6 °F 26.6 °F 33.8 °F 93% 29.54 in 5.0 mi NW 13.8 mph 23.0 mph N/A Rain Light Rain
12:56 AM 35.6 °F 27.1 °F 33.8 °F 93% 29.54 in 10.0 mi WNW 12.7 mph 21.9 mph N/A   Light Drizzle
1:17 AM 35.6 °F 25.9 °F 33.8 °F 93% 29.54 in 7.0 mi WNW 16.1 mph 20.7 mph N/A   Light Drizzle
1:37 AM 35.6 °F 27.1 °F 33.8 °F 93% 29.54 in 7.0 mi WNW 12.7 mph 19.6 mph N/A   Overcast
1:56 AM 35.6 °F 26.2 °F 33.8 °F 93% 29.54 in 3.0 mi WNW 15.0 mph 20.7 mph N/A Rain Light Rain
2:17 AM 35.6 °F 25.9 °F 33.8 °F 93% 29.54 in 2.5 mi WNW 16.1 mph 21.9 mph N/A Rain Light Rain
2:37 AM 35.6 °F 27.5 °F 33.8 °F 93% 29.54 in 3.0 mi WNW 11.5 mph 17.3 mph N/A   Overcast
2:56 AM 35.6 °F 26.6 °F 33.8 °F 93% 29.55 in 2.5 mi WNW 13.8 mph 21.9 mph N/A   Overcast
3:17 AM 35.6 °F 26.2 °F 33.8 °F 93% 29.55 in 2.5 mi WNW 15.0 mph - N/A   Overcast
3:37 AM 35.6 °F 26.6 °F 33.8 °F 93% 29.55 in 3.0 mi WNW 13.8 mph 19.6 mph N/A   Overcast
3:57 AM 35.6 °F 26.6 °F 33.8 °F 93% 29.55 in 2.5 mi WNW 13.8 mph 18.4 mph N/A   Overcast
4:17 AM 35.6 °F 27.1 °F 33.8 °F 93% 29.55 in 2.0 mi WNW 12.7 mph - N/A Rain Light Rain
4:37 AM 35.6 °F 27.5 °F 33.8 °F 93% 29.55 in 2.0 mi WNW 11.5 mph 19.6 mph N/A Snow Light Snow
4:57 AM 35.6 °F 27.1 °F 33.8 °F 93% 29.56 in 3.0 mi WNW 12.7 mph 18.4 mph N/A Rain Light Rain
5:17 AM 35.6 °F 26.6 °F 33.8 °F 93% 29.56 in 4.0 mi WNW 13.8 mph - N/A   Overcast
5:36 AM 35.6 °F 27.5 °F 33.8 °F 93% 29.57 in 3.0 mi WNW 11.5 mph - N/A   Overcast
5:57 AM 35.6 °F 26.6 °F 33.8 °F 93% 29.57 in 4.0 mi WNW 13.8 mph 18.4 mph N/A   Overcast
6:17 AM 35.6 °F 26.2 °F 33.8 °F 93% 29.58 in 3.0 mi WNW 15.0 mph 19.6 mph N/A   Overcast
6:37 AM 35.6 °F 25.9 °F 33.8 °F 93% 29.58 in 7.0 mi WNW 16.1 mph 19.6 mph N/A   Overcast
6:57 AM 35.6 °F 27.1 °F 33.8 °F 93% 29.58 in 10.0 mi WNW 12.7 mph 18.4 mph N/A   Overcast
7:17 AM 35.6 °F 27.1 °F 33.8 °F 93% 29.58 in 10.0 mi WNW 12.7 mph 17.3 mph N/A   Overcast
7:36 AM 35.6 °F 26.6 °F 33.8 °F 93% 29.58 in 10.0 mi WNW 13.8 mph 18.4 mph N/A   Overcast
7:57 AM 35.6 °F 28.0 °F 33.8 °F 93% 29.59 in 7.0 mi WNW 10.4 mph - N/A   Overcast
8:17 AM 35.6 °F 27.5 °F 33.8 °F 93% 29.59 in 10.0 mi WNW 11.5 mph 16.1 mph N/A   Overcast
8:36 AM 35.6 °F 26.6 °F 33.8 °F 93% 29.60 in 10.0 mi WNW 13.8 mph 17.3 mph N/A   Overcast
8:57 AM 35.6 °F 27.5 °F 33.8 °F 93% 29.60 in 10.0 mi West 11.5 mph 20.7 mph N/A   Overcast
9:17 AM 35.6 °F 27.5 °F 33.8 °F 93% 29.61 in 10.0 mi WNW 11.5 mph 17.3 mph N/A   Overcast
9:36 AM 35.6 °F 26.6 °F 33.8 °F 93% 29.61 in 10.0 mi WNW 13.8 mph 20.7 mph N/A   Overcast
9:57 AM 35.6 °F 26.6 °F 33.8 °F 93% 29.61 in 10.0 mi WNW 13.8 mph 20.7 mph N/A   Overcast
10:17 AM 37.4 °F 28.2 °F 33.8 °F 87% 29.61 in 10.0 mi WNW 16.1 mph - N/A   Overcast
10:36 AM 37.4 °F 29.8 °F 33.8 °F 87% 29.62 in 10.0 mi WNW 11.5 mph 17.3 mph N/A   Overcast
10:57 AM 37.4 °F 28.9 °F 33.8 °F 87% 29.62 in 10.0 mi WNW 13.8 mph 21.9 mph N/A   Overcast
11:17 AM 37.4 °F 28.2 °F 33.8 °F 87% 29.62 in 10.0 mi WNW 16.1 mph 21.9 mph N/A   Overcast
11:37 AM 37.4 °F 28.9 °F 33.8 °F 87% 29.63 in 10.0 mi West 13.8 mph 21.9 mph N/A   Overcast
11:57 AM 37.4 °F 29.3 °F 33.8 °F 87% 29.63 in 10.0 mi WNW 12.7 mph 25.3 mph N/A   Overcast
12:21 PM 37.4 °F 28.5 °F 33.8 °F 87% 29.64 in 10.0 mi WNW 15.0 mph 18.4 mph N/A   Overcast
12:37 PM 37.4 °F 28.5 °F 33.8 °F 87% 29.64 in 10.0 mi WNW 15.0 mph 18.4 mph N/A   Overcast
12:57 PM 37.4 °F 28.5 °F 33.8 °F 87% 29.64 in 10.0 mi WNW 15.0 mph - N/A   Overcast
1:16 PM 37.4 °F 29.3 °F 33.8 °F 87% 29.64 in 10.0 mi WNW 12.7 mph 17.3 mph N/A   Overcast
1:37 PM 37.4 °F 29.8 °F 33.8 °F 87% 29.64 in 5.0 mi WNW 11.5 mph - N/A   Drizzle
1:57 PM 37.4 °F 29.8 °F 35.6 °F 93% 29.64 in 7.0 mi WNW 11.5 mph 20.7 mph N/A Rain Rain
2:21 PM 37.4 °F 28.9 °F 35.6 °F 93% 29.65 in 7.0 mi West 13.8 mph 19.6 mph N/A   Light Drizzle
3:16 PM 39.2 °F 33.0 °F 35.6 °F 87% 29.65 in 5.0 mi West 9.2 mph 17.3 mph N/A   Light Drizzle
3:37 PM 39.2 °F 31.2 °F 35.6 °F 87% 29.65 in 2.5 mi WNW 13.8 mph - N/A   Heavy Drizzle
3:57 PM 39.2 °F 31.6 °F 35.6 °F 87% 29.65 in 5.0 mi West 12.7 mph - N/A   Drizzle
4:16 PM 39.2 °F 32.5 °F 35.6 °F 87% 29.65 in 2.5 mi WNW 10.4 mph 18.4 mph N/A Rain Heavy Rain
4:37 PM 39.2 °F 32.0 °F 35.6 °F 87% 29.66 in 5.0 mi WNW 11.5 mph - N/A Rain Light Rain
4:57 PM 39.2 °F 32.0 °F 35.6 °F 87% 29.66 in 2.5 mi WNW 11.5 mph 16.1 mph N/A   Drizzle
5:17 PM 37.4 °F 29.8 °F 35.6 °F 93% 29.67 in 2.0 mi WNW 11.5 mph - N/A   Heavy Drizzle
5:37 PM 37.4 °F 30.8 °F 35.6 °F 93% 29.68 in 2.0 mi WNW 9.2 mph - N/A   Drizzle
5:57 PM 37.4 °F 30.3 °F 37.4 °F 100% 29.68 in 2.5 mi West 10.4 mph - N/A Rain Light Rain
6:17 PM 37.4 °F 31.4 °F 37.4 °F 100% 29.68 in 5.0 mi West 8.1 mph - N/A   Light Drizzle
6:37 PM 37.4 °F 29.8 °F 35.6 °F 93% 29.69 in 4.0 mi West 11.5 mph 17.3 mph N/A   Drizzle
6:57 PM 37.4 °F 29.3 °F 35.6 °F 93% 29.70 in 3.0 mi West 12.7 mph 18.4 mph N/A Rain Light Rain
7:17 PM 37.4 °F 30.8 °F 35.6 °F 93% 29.70 in 7.0 mi West 9.2 mph 17.3 mph N/A   Light Drizzle
7:37 PM 37.4 °F 29.8 °F 35.6 °F 93% 29.70 in 4.0 mi West 11.5 mph - N/A   Overcast
8:17 PM 37.4 °F 29.8 °F 35.6 °F 93% 29.71 in 7.0 mi West 11.5 mph 16.1 mph N/A   Overcast
8:37 PM 37.4 °F 29.3 °F 35.6 °F 93% 29.72 in 4.0 mi West 12.7 mph 18.4 mph N/A   Overcast
8:56 PM 37.4 °F 28.9 °F 35.6 °F 93% 29.72 in 2.5 mi West 13.8 mph - N/A Rain Light Rain
9:17 PM 37.4 °F 30.3 °F 35.6 °F 93% 29.72 in 2.0 mi West 10.4 mph - N/A Rain Light Rain
9:37 PM 37.4 °F 31.4 °F 35.6 °F 93% 29.72 in 3.0 mi West 8.1 mph - N/A Rain Rain
9:56 PM 37.4 °F 30.8 °F 35.6 °F 93% 29.72 in 4.0 mi West 9.2 mph - N/A Rain Light Rain
10:17 PM 37.4 °F 28.9 °F 35.6 °F 93% 29.72 in 7.0 mi WNW 13.8 mph 18.4 mph N/A Rain Light Rain
10:37 PM 37.4 °F 28.9 °F 35.6 °F 93% 29.73 in 2.5 mi WNW 13.8 mph - N/A   Drizzle
10:57 PM 37.4 °F 30.3 °F 35.6 °F 93% 29.73 in 3.0 mi WNW 10.4 mph 17.3 mph N/A   Drizzle
11:17 PM 37.4 °F 29.3 °F 35.6 °F 93% 29.73 in 4.0 mi WNW 12.7 mph 17.3 mph N/A   Light Drizzle
11:37 PM 37.4 °F 28.9 °F 35.6 °F 93% 29.73 in 5.0 mi West 13.8 mph - N/A   Drizzle
11:57 PM 37.4 °F 29.3 °F 35.6 °F 93% 29.73 in 5.0 mi West 12.7 mph 18.4 mph N/A Rain Rain